Weather in Osoivka

Ukraine / Sumi District     50°54′05″N   35°09′34″E
temp.,
°C
wind,
m/s
gust,
m/s
humid.,
%
clouds,
%
prec.,
mm/h
press.,
hPa
HPBL,
m
21 october, thu
thu2100:00+9ssw81852100 0.0 1018632
03:00+10sw81865100 0.0 1016647
06:00+9sw81779100 0.0 1014502
09:00+10sw8177885 0.0 1013561
12:00+14sw101659100 0.0 1012736
15:00+16sw9165060 0.0 1011914
18:00+14sw91759100 0.0 1009891
21:00+13ssw91866100 0.0 1008811
22 october, fri
fri2200:00+11ssw918738 0.0 1007626
03:00+10ssw8168146 0.0 1007533
06:00+10sw71479100 0.0 1007433
09:00+12sw7146899 0.0 1008711
12:00+15w8124747 0.0 10101299
15:00+15wsw711435 0.0 10101623
18:00+11wsw48565 0.0 1012169
21:00+9sw410635 0.0 1012202
23 october, sat
sat2300:00+9sw4116431 0.0 1012240
03:00+9w396298 0.0 1012398
06:00+9sw5106045 0.0 1012544
09:00+9wsw611680 0.0 1012835
12:00+12w811445 0.0 10131652
15:00+11w8124034 0.0 10142249
18:00+8w510575 0.0 1016439
21:00+6wsw410615 0.0 1017307
24 october, sun
sun2400:00+5wsw410675 0.0 1018310
03:00+3wsw49785 0.0 1018257
06:00+3wsw4118264 0.0 1018332
09:00+4w5978100 0.0 1019573
12:00+6w796595 0.1 10191219
15:00+5wnw71074100 0.4 10191093
18:00+3nw61185100 0.8 1020904
21:00+2nw71396100 1.2 1021788
25 october, mon
mon2500:00+2nnw81171100 0.1 10231015
03:00+2n71169100 0.1 10251214
06:00+1n6978100 0.0 10271156
09:00+2n686795 0.1 10301128
12:00+4n675083 0.0 10311275
15:00+5nne67465 0.0 10321305
18:00+1nne35585 0.0 103477
21:000nne23663 0.0 103546